User: anonymous   Login
Location: Caltech
(34.1382°N, 118.1253°W)
Time: 01:27:44
(UTC-07:00)
Language:

SL-16 R/B - Orbit

View from above orbital plane
View from above orbital plane
View from above satellite
View from above satellite

Ground track
Ground track

The orbit data is extracted from the following two-line orbital elements,

1 31793U 07029B   14303.29492895 -.00000166  00000-0 -61955-4 0  1111
2 31793 070.9762 247.3914 0002246 267.0964 199.6492 14.14289407378855
Epoch (UTC): 30 October 2014 07:04:41
Eccentricity: 0.0002246
inclination: 70.9762°
perigee height: 843 km
apogee height: 846 km
right ascension of ascending node: 247.3914°
argument of perigee: 267.0964°
revolutions per day: 14.14289407
mean anomaly at epoch: 199.6492°
orbit number at epoch: 37885

The dashed part of the orbit path shows where the satellite is in the earth's shadow,  

DLR